Home   Weather   Pointe-à-Pitre   Past weeks

Flag for Guadeloupe Past Weather in Pointe-à-Pitre, Guadeloupe — Yesterday and Last 2 Weeks

Now
77 °F

Clear.


Feels Like: 79 °F
Forecast: 75 / 84 °F
Wind: 3 mph from Southeast

Location: Le Raizet - Guadeloupe

Current Time: Apr 30, 2017 at 10:33:46 pm

Latest Report: Apr 30, 2017 at 9:30 pm


Visibility: 10 mi

Pressure: 30.04 "Hg

Humidity: 79%

Dew Point: 70 °F

Location of Pointe-à-PitreLocation

Past Weather in Pointe-à-Pitre — Graph

°F

Pointe-à-Pitre Temperature Yesterday

Maximum temperature yesterday: 82 °F (at 9:30 am)
Minimum temperature yesterday: 73 °F (at 1:00 am)
Average temperature yesterday: 78 °F

High & Low Weather Summary for the Past Weeks

 TemperatureHumidityPressure
High86 °F (Apr 16, 11:00 am)100% (Apr 15, 11:00 pm)30.07 "Hg (Apr 15, 11:00 pm)
Low68 °F (Apr 20, 2:00 am)51% (Apr 19, 2:30 pm)29.89 "Hg (Apr 20, 3:00 pm)
Average78 °F80%29.98 "Hg
* Reported Apr 15 9:00 pm — Apr 30 9:00 pm, Pointe-à-Pitre, Weather by CustomWeather, © 2017

Note: Actual official high and low records may vary slightly from our data, if they occured in-between our weather recording intervals... More about our weather records

Advertising

Pointe-à-Pitre Weather History for the Previous 24 Hours

Scroll right to see more
 ConditionsComfort  
Time TempWeatherWind HumidityBarometerVisibility
9:00 pm
Sun, Apr 30
77 °FClear.6 mph83%30.04 "Hg10 mi
8:30 pm77 °FClear.5 mph83%30.01 "Hg10 mi
8:00 pm77 °FClear.6 mph83%30.01 "Hg10 mi
7:30 pm79 °FClear.6 mph79%30.01 "Hg10 mi
7:00 pm79 °FClear.7 mph79%30.01 "Hg10 mi
6:30 pm79 °FClear.6 mph79%29.98 "Hg10 mi
6:00 pm81 °FSunny.8 mph74%29.98 "Hg10 mi
5:30 pm81 °FSunny.9 mph74%29.98 "Hg10 mi
5:00 pm81 °FSunny.9 mph74%29.98 "Hg10 mi
4:30 pm82 °FOvercast.10 mph66%29.98 "HgN/A
4:00 pm82 °FBroken clouds.14 mph66%29.98 "HgN/A
3:30 pm82 °FPartly sunny.13 mph66%29.98 "HgN/A
3:00 pm82 °FBroken clouds.14 mph70%29.98 "HgN/A
2:30 pm82 °FPartly sunny.16 mph66%29.98 "HgN/A
2:00 pm82 °FMostly cloudy.14 mph70%30.01 "HgN/A
1:30 pm82 °FMore clouds than sun.15 mph66%30.01 "HgN/A
1:00 pm82 °FBroken clouds.10 mph70%30.01 "HgN/A
12:30 pm81 °FPartly sunny.14 mph74%30.04 "HgN/A
12:00 pm81 °FMore clouds than sun.9 mph74%30.04 "HgN/A
11:30 am79 °FOvercast.10 mph74%30.04 "HgN/A
11:00 am81 °FBroken clouds.17 mph70%30.04 "HgN/A
10:30 am82 °FPartly sunny.16 mph62%30.04 "HgN/A
10:00 am86 °FScattered clouds.14 mph55%30.04 "HgN/A
9:30 am84 °FPassing clouds.12 mph62%30.04 "HgN/A
9:00 am82 °FMostly cloudy.14 mph66%30.04 "HgN/A
8:30 am82 °FPartly sunny.9 mph70%30.04 "HgN/A
8:00 am81 °FMostly cloudy.7 mph74%30.04 "HgN/A
7:30 am79 °FMore clouds than sun.6 mph84%30.04 "HgN/A
7:00 am79 °FMostly cloudy.9 mph79%30.01 "HgN/A
6:30 am77 °FPartly sunny.5 mph83%30.01 "HgN/A
6:00 am77 °FWarm.6 mph83%30.01 "HgN/A
5:30 am75 °FMild.5 mph89%30.01 "HgN/A
5:00 am77 °FWarm.6 mph83%30.01 "HgN/A
4:30 am77 °FPassing clouds.6 mph83%29.98 "HgN/A
4:00 am77 °FMostly cloudy.2 mph83%29.98 "HgN/A
3:30 am77 °FOvercast.No wind83%29.98 "HgN/A
3:00 am77 °FMostly cloudy.3 mph83%29.98 "HgN/A
2:30 am77 °FOvercast.5 mph83%29.98 "HgN/A
2:00 am77 °FOvercast.6 mph83%30.01 "HgN/A
1:30 am77 °FClear.6 mph83%30.01 "Hg10 mi
1:00 am77 °FMostly cloudy.3 mph83%30.01 "HgN/A
12:30 am77 °FOvercast.3 mph79%30.01 "HgN/A
12:00 am77 °FOvercast.5 mph79%30.04 "HgN/A
11:30 pm
Sat, Apr 29
77 °FPassing clouds.7 mph83%30.04 "HgN/A
11:00 pm77 °FPassing clouds.9 mph83%30.04 "HgN/A
10:30 pm77 °FPassing clouds.8 mph83%30.04 "HgN/A
10:00 pm77 °FWarm.7 mph83%30.04 "HgN/A
Weather by CustomWeather, © 2017

See weather overviewHow to use our weather pages